FENGYUN 1C DEB *, 47042

Orbit data source: Space-Track

FENGYUN 1C DEB *, 47042 is space debris in SSO originally from a launch on Mon, 10 May 1999 UTC launched from the Taiyaun Space Center, China (TSC). Fengyun 1C debris stems from the Chinese weather satellite Fengyun-1C, which was intentionally destroyed by a Chinese anti-satellite missile in 2007. This event dramatically increased the amount of space debris, with thousands of trackable fragments posing hazards to satellites and human spaceflight. The Fengyun 1C debris cloud has become a focal point in discussions about space sustainability and the need for international regulations to prevent the creation of new debris.

Loading next visibility...
Identifier
47042, 1999-025FBU
Orbit
SSO
Country
Flag of CNCN / PRC
Related business
Manufacturer
Unknown
Mission
Spacecraft
Bus & Motor
Unknown
Mass
Unknown
Launch date (UTC)
1999-05-10 (27 years ago)
Launch vehicle
Unknown
Launch site
Taiyaun Space Center, China (TSC)
Object type
Payload
Rocket body
Debris
Shape & HBR
Unknown shape, 0.1 m
Radar Cross Section
Small (<0.1 m²)

Expand to show TLE details & history
Last TLE update: 5 days ago

TLE from 5 days ago
0 FENGYUN 1C DEB *
1 47042U 99025FBU 26250.54820663  .00000249  00000-0  12904-3 0  9995
2 47042  98.9796 158.6879 0054425 343.6638 140.9282 14.23106495663448
Epoch: 2026-09-07T13:09Z
TLE epoch observation values (Epoch: 2026-09-07T13:09:25.052Z)
Latitude
54.12623°
Longitude
167.25981°
Altitude
854.215 km
Speed
7.415 km/s
True Right ascension
23h 24m 57s
True Declination
53° 57' 54"
Sunlit
Object was in full shadow at epoch
Visualization orbit readout
Latitude
Unknown
Longitude
Unknown
Altitude
Unknown
Speed
Unknown
Apparent Right ascension
Unknown
Apparent Declination
Unknown
Sunlit
N/A
Visualization observer readout
Local Sidereal Time
16:04:59
Azimuth
Unknown
Elevation
Unknown
Doppler factor
Unknown
Orbital elements
Apogee altitude
851.166 km
Perigee altitude
772.901 km
Semi-major axis
7,190.17 km
Eccentricity
0.00544
Inclination
98.9796°
RAAN
158.6879°
Arg. of periapsis
343.6638°
True anomaly
141.31922°
Mean anomaly
140.9282°
Eccentric anomaly
141.12392°
Mean motion
3.55987 °/min
Orbital period
101.13 mins
BSTAR
0.00012904
Loading maneuver chart data...
Computing Atmospheric mass density...

Documentation

Showing up to 5 results
|